SCP
-0 0 0 0 0 0 -0 0 0 0 0 0 0 0 0 0 0 0 0 0 0 0 0 0 0 0 0 0 0 0 0 0 0 0 0 0 0 0 0 0 0 0 0 0 0 0 0 0 0
-0 0 0 0 0 0 0 0 0 0 0 0 0 0 0 0 0 0 0 0 0 0 0 0 0 0 0 0 0 0 0 0 0 0 0 0 0 0 0 0 0 0 0 0 0 0 0 0 0
-0 -0 0 0 0 0 0 0 0 0 0 0 0 0 0 0 0 0 0 0 0 0 0 0 0 0 0 0 0 0 0 0 0 0 0 0 0 0 0 0 0 0 0 0 0 0 0 0 0
0 0 0 0 0 0 0 0 0 0 0 0 0 0 0 0 0 0 0 0 0 0 0 0 0 0 0 0 0 0 0 0 0 0 0 0 0 0 0 0 0 0 0 0 0 0 0 0 0
0 0 0 0 0 0 0 0 0 0 0 0 0 0 0 0 0 0 0 0 0 0 0 0 0 0 0 0 0 0 0 0 0 0 0 0 0 0 0 0 0 1 0 0 0 0 0 0 0
0 0 0 0 0 0 0 0 0 0 0 0 0 0 0 0 0 0 0 0 0 0 0 0 0 0 0 0 0 0 0 0 0 0 0 0 0 0 0 0 0 0 0 0 0 0 0 0 0
0 0 0 0 0 0 0 0 0 0 0 0 0 0 0 0 0 0 0 0 0 0 0 0 0 0 0 0 0 0 0 0 0 0 0 0 0 0 0 0 0 0 0 0 0 0 0 0 0
0 0 0 0 0 0 0 0 0 0 0 0 0 0 0 0 0 0 0 0 0 0 0 0 0 0 0 0 0 0 0 0 0 0 0 0 0 0 0 0 0 0 0 0 0 0 0 0 0
0 0 0 0 0 0 0 0 0 0 0 0 0 0 0 0 0 0 0 0 0 0 0 0 0 0 0 0 0 0 0 0 0 0 0 0 0 0 0 0 0 0 0 0 0 0 0 0 0
0 0 0 0 0 0 0 0 0 0 0 0 0 0 0 0 0 0 0 0 0 0 0 0 0 0 0 0 0 0 0 0 0 0 0 0 0 0 0 0 0 0 0 0 1 0 0 0 0
0 0 0 0 0 0 0 0 0 0 0 0 0 0 0 0 0 0 0 0 0 0 0 0 0 0 0 0 0 0 0 0 0 0 0 0 0 0 0 0 0 0 0 0 0 0 0 0 0
0 0 0 0 0 0 0 0 0 0 0 0 0 0 0 0 0 0 0 0 0 0 0 0 0 0 0 0 0 0 0 0 0 0 0 0 0 0 0 0 0 0 0 0 0 0 0 0 0
0 0 0 0 0 0 0 0 0 0 0 0 0 0 0 0 0 0 0 0 0 0 0 0 0 0 0 0 0 0 0 0 0 0 0 0 0 0 0 0 0 0 0 0 0 0 0 0 0
0 0 0 0 0 0 0 0 0 0 0 0 0 0 0 0 0 0 0 0 0 0 0 0 0 0 0 0 0 0 0 0 0 0 0 0 0 0 0 0 0 0 0 0 0 0 0 0 0
0 0 0 0 0 0 0 0 0 0 0 0 0 0 0 0 0 0 0 0 0 0 0 0 0 0 0 0 0 0 0 0 0 0 0 0 0 0 0 0 0 0 0 0 0 0 0 0 0
0 0 0 0 0 0 0 0 0 0 0 0 0 0 0 0 0 0 0 0 0 0 0 0 0 0 0 0 0 0 0 0 0 0 0 0 0 0 0 0 0 0 0 0 0 0 0 0 0
0 0 0 0 0 0 0 0 0 0 0 0 0 0 0 0 0 0 0 0 0 0 0 0 0 0 0 0 0 0 0 0 0 0 0 0 0 0 0 0 0 0 0 0 0 0 0 0 0
0 0 0 0 0 0 0 0 0 0 0 0 0 0 0 0 0 0 0 0 0 0 0 0 0 0 0 0 0 0 0 0 0 0 -0 -0 -0 -0 0 0 0 0 0 0 0 0 0 0 0
0 0 0 0 0 0 0 0 0 0 0 0 0 0 0 0 0 0 0 0 0 0 0 0 0 0 0 0 0 0 0 0 0 -0 -0 -0 -0 0 0 0 0 0 0 0 0 -0 0 0 0
0 0 0 0 0 0 -0 -0 0 0 0 0 0 0 0 0 0 0 0 0 0 0 0 0 0 0 0 0 0 0 0 0 0 0 -0 -0 -0 0 0 0 0 0 0 0 0 0 0 0 0
0 0 0 0 0 0 -0 0 0 0 0 0 0 0 0 0 0 0 0 0 0 0 0 0 0 0 0 0 0 0 0 0 0 0 -0 0 0 0 0 0 0 0 0 0 0 0 0 0 0
0 0 0 0 0 0 0 0 0 0 0 0 0 0 0 0 0 0 0 0 0 0 0 0 0 0 0 0 0 0 0 0 0 0 0 -0 0 0 0 0 0 0 0 0 0 0 0 0 0
0 0 0 0 0 0 0 0 0 0 0 0 0 0 0 0 0 0 0 0 0 0 0 0 0 0 0 0 0 0 0 0 0 0 0 0 0 0 0 0 0 0 0 0 0 0 0 0 0
0 0 0 0 0 0 0 0 0 0 0 0 0 0 0 0 0 0 0 0 0 0 0 0 0 0 0 0 0 0 0 0 0 0 0 0 0 0 0 0 0 0 0 0 0 0 0 0 0
0 0 0 0 0 0 0 0 0 0 0 0 0 0 0 0 0 0 0 0 0 0 0 0 0 0 0 0 0 0 0 0 0 -0 -0 0 0 0 0 0 0 0 0 0 0 0 0 0 0
0 0 0 0 0 0 0 0 0 0 0 0 0 0 0 0 0 0 0 0 0 0 0 0 0 0 0 0 0 0 0 0 -0 -0 -0 0 0 0 0 0 0 0 0 0 0 0 0 0 0
0 0 0 0 0 0 0 0 0 0 0 0 0 0 0 0 0 0 0 0 0 0 0 0 0 0 0 0 0 0 0 -0 -0 0 0 0 0 0 0 0 0 0 0 0 0 0 0 0 0
0 0 0 0 0 0 0 0 0 0 0 0 0 0 0 0 0 0 0 0 0 0 0 0 0 0 0 0 0 0 0 -0 -0 0 0 0 0 0 0 0 0 0 -0 0 0 0 0 0 0
0 0 0 0 0 0 0 0 0 0 0 0 0 0 0 0 0 0 0 0 0 0 0 0 0 0 0 0 0 0 0 -0 0 0 0 0 0 0 0 0 0 0 0 0 0 0 0 0 0
0 0 0 0 0 0 0 0 0 0 0 0 0 0 0 0 0 0 0 0 0 0 0 0 0 0 0 0 0 0 -0 0 0 0 0 0 0 0 0 0 0 0 0 0 0 0 0 0 0
Wind_Speed_500mb
10 10 5 3 3 6 15 3 13 8 4 13 10 7 7 10 8 3 16 8 4 7 16 24 28 31 34 34 30 27 25 23 23 23 23 23 27 29 26 26 28 30 33 31 25 26 29 29 30
6 9 3 10 5 9 4 14 11 16 23 15 6 3 7 4 12 7 7 9 10 16 21 24 29 31 31 31 32 30 28 27 26 25 23 21 25 28 31 31 30 32 35 34 31 31 32 37 36
2 5 9 6 9 11 6 12 13 20 11 3 2 1 3 5 10 13 19 10 10 20 25 25 26 26 26 27 28 29 29 28 28 31 30 23 20 29 31 33 35 35 37 37 36 35 40 42 49
7 6 12 5 17 3 8 13 13 15 5 1 7 10 8 11 13 14 15 12 15 21 22 22 23 23 23 25 27 28 29 30 30 30 32 34 26 25 31 36 37 39 40 39 38 38 44 49 58
7 11 7 10 18 4 9 7 4 7 7 11 9 5 6 15 20 17 14 12 11 17 22 23 22 22 22 24 25 27 28 30 31 33 33 31 32 29 28 34 38 40 44 42 38 43 51 60 66
10 7 7 12 9 9 7 7 3 8 7 11 3 19 4 10 10 13 14 13 17 19 24 23 22 22 25 25 26 28 30 31 32 33 34 35 32 31 31 32 37 37 43 41 35 40 51 83 86
6 5 13 14 15 8 9 11 7 13 13 11 13 7 2 13 12 16 14 16 23 23 22 24 23 25 26 26 27 30 32 33 34 34 34 33 32 31 34 34 39 39 43 45 37 39 41 19 55
9 3 13 10 3 5 11 2 4 9 3 4 8 6 2 14 15 18 18 19 22 24 26 22 25 29 29 31 36 32 33 33 34 36 35 33 31 30 29 30 32 34 38 40 42 43 40 49 28
5 6 11 13 7 6 17 3 13 6 10 4 8 14 9 16 19 18 21 22 21 24 25 25 26 27 30 32 38 40 44 42 40 37 36 36 34 32 32 27 24 24 29 32 38 34 34 50 53
6 6 9 6 10 9 13 6 18 4 14 20 28 26 31 28 23 21 21 20 18 24 32 33 29 33 33 34 39 42 43 44 45 41 37 33 35 35 26 22 29 22 24 29 22 24 10 35 44
7 7 10 17 14 11 11 13 15 9 14 21 21 20 35 32 22 23 24 21 21 25 29 34 37 37 38 40 39 42 44 47 48 45 40 35 34 32 19 18 18 22 23 30 20 25 35 34 34
7 19 5 8 3 7 6 11 12 29 24 17 12 11 18 25 26 24 26 23 21 27 29 30 39 42 41 42 39 43 45 47 47 43 37 33 31 29 22 17 21 18 19 31 39 23 32 25 25
11 10 5 13 13 18 16 22 18 39 36 25 25 22 23 24 25 25 28 27 28 29 28 29 37 45 41 42 40 42 45 47 47 42 33 28 28 25 20 19 18 23 16 26 44 40 41 34 48
8 16 23 12 18 15 10 12 7 9 15 22 38 32 30 29 28 26 27 28 28 28 31 34 36 42 39 37 36 43 47 48 43 36 29 25 27 21 15 17 18 20 27 18 40 42 42 39 65
10 11 15 22 15 6 6 15 23 36 15 12 19 26 32 31 27 31 29 29 28 34 34 35 34 37 32 31 36 42 45 43 37 29 22 22 22 15 13 18 16 16 17 15 31 38 63 56 46
7 6 5 6 8 4 1 15 8 18 19 18 21 23 23 26 30 24 25 27 34 31 29 29 29 31 30 32 37 40 39 34 29 20 18 18 15 9 11 14 17 18 12 14 39 57 75 55 74
11 10 10 9 5 4 12 15 9 14 20 21 23 30 29 25 24 22 21 35 30 24 25 26 26 27 28 32 35 35 32 29 21 18 16 23 6 9 7 12 20 18 17 25 24 33 67 81 78
5 9 5 8 8 11 15 36 33 48 41 37 32 32 29 28 23 25 32 32 21 22 22 24 26 26 27 31 32 30 24 20 20 14 14 7 1 6 10 7 11 19 15 25 27 33 65 81 83
7 12 15 15 6 2 15 28 25 26 8 9 17 23 31 27 22 28 25 20 19 20 22 24 25 26 28 29 29 28 27 24 15 13 7 2 3 7 12 13 7 16 15 22 29 33 39 68 66
7 12 12 4 6 1 16 35 30 8 8 4 4 2 12 23 24 22 17 18 17 20 23 24 26 25 27 26 25 25 22 15 11 6 9 3 5 7 12 15 8 14 17 16 28 47 57 76 60
9 10 6 6 16 12 17 15 7 4 8 10 6 9 17 24 19 15 15 17 15 22 22 25 25 23 24 22 20 20 16 8 10 8 6 5 5 8 14 16 15 13 23 16 22 28 64 77 72
7 6 5 7 11 6 4 11 7 10 11 9 17 13 15 18 18 14 13 17 19 24 23 23 21 20 20 18 16 16 12 3 3 7 6 5 3 7 14 15 17 14 31 16 22 19 64 74 77
3 3 7 5 4 9 6 1 9 9 11 12 14 19 16 15 11 12 16 21 27 22 19 20 19 17 16 15 15 12 7 3 2 8 7 3 2 9 12 14 13 20 23 24 19 16 54 73 82
11 4 4 1 3 3 2 3 9 6 9 13 15 19 19 19 19 19 22 19 21 17 15 17 17 16 14 13 13 12 6 2 2 2 6 2 4 4 10 13 13 11 31 31 22 14 51 81 65
5 3 7 8 4 9 1 0 17 5 10 15 18 26 23 20 17 16 16 14 17 19 15 16 14 11 12 11 12 10 6 1 3 7 7 3 7 8 11 10 11 11 34 36 24 24 40 47 61
12 6 8 10 6 5 5 11 10 7 19 18 23 27 24 21 16 18 16 18 20 18 14 13 12 10 9 12 12 9 5 2 6 6 8 5 4 9 9 8 13 13 30 31 28 29 38 36 55
9 7 4 10 2 5 8 13 3 7 7 11 18 21 23 17 14 14 16 19 21 16 10 9 10 8 9 12 10 6 2 4 6 3 6 4 6 13 19 17 14 12 28 37 26 31 31 33 56
4 3 6 2 6 8 9 8 11 10 15 16 16 27 22 17 16 15 17 18 20 17 10 6 7 8 11 11 5 2 5 5 2 4 3 7 9 13 17 14 13 19 35 29 27 40 33 46 52
6 3 8 1 5 10 3 11 9 9 17 19 18 31 25 24 18 12 14 18 19 15 10 5 5 7 12 8 3 1 7 6 3 4 3 4 9 11 8 9 15 25 37 29 32 28 30 37 33
5 5 13 8 10 1 5 12 3 11 5 15 31 31 28 26 22 11 17 20 18 14 9 4 3 5 8 5 2 7 14 11 6 7 7 10 12 4 11 21 36 41 31 34 32 27 32 33 30
Wind_Direction_500mb
298 346 5 331 245 215 264 254 65 125 158 74 55 14 16 318 357 288 187 181 177 282 304 314 318 316 314 312 309 302 294 291 289 284 293 285 276 266 256 249 251 250 241 238 235 233 228 224 194
309 95 348 255 237 236 255 62 126 55 95 97 113 258 233 125 93 154 191 238 269 281 288 303 307 309 310 311 309 306 299 289 284 279 279 291 273 264 263 255 250 250 251 249 246 236 228 218 200
115 84 266 211 228 252 27 64 61 80 100 194 105 221 322 83 137 152 217 240 282 282 293 307 309 309 311 311 311 310 307 300 290 280 275 270 283 271 258 256 252 250 255 254 249 236 229 220 203
63 249 256 267 265 307 28 63 50 110 116 192 319 277 164 198 156 195 229 262 272 276 293 310 309 315 317 319 319 317 314 311 305 294 283 276 271 272 269 259 252 248 248 252 252 237 235 227 209
5 277 269 229 256 129 93 50 15 202 144 164 181 236 176 208 231 233 267 262 256 268 301 308 312 317 320 320 318 316 313 310 306 301 295 284 272 266 271 269 257 250 248 249 250 240 236 231 214
268 247 275 254 323 120 105 68 198 254 245 135 321 256 255 196 258 231 234 267 270 279 301 309 316 320 321 323 323 322 319 315 309 304 300 295 285 266 263 262 265 254 250 251 258 253 243 235 207
256 292 263 295 308 354 59 74 240 253 232 206 176 309 167 240 221 224 238 253 277 287 302 309 316 321 323 327 333 327 322 315 311 306 300 296 290 278 265 263 262 260 253 249 250 255 262 166 161
308 283 272 257 307 12 80 99 313 339 309 111 136 227 340 208 230 227 263 270 277 292 305 310 321 327 329 331 325 326 324 319 314 305 301 296 291 276 274 267 268 263 264 256 253 251 267 199 186
268 279 269 332 42 74 122 244 148 239 282 259 234 243 269 205 237 258 274 281 291 300 307 309 313 312 316 319 316 325 327 329 324 316 304 295 288 281 273 265 263 260 257 261 249 258 269 236 223
244 262 339 14 16 353 348 174 300 232 252 231 232 244 247 262 254 266 275 284 292 302 309 305 304 305 306 309 314 319 322 325 323 319 307 295 288 287 283 276 262 263 248 250 238 224 217 173 152
233 239 37 31 19 354 315 305 244 236 260 251 232 244 226 244 257 257 265 270 281 286 275 285 294 294 299 303 312 313 316 321 322 318 311 303 288 288 288 266 262 253 246 231 206 190 201 202 180
276 244 5 331 351 288 261 328 279 245 238 294 243 224 211 229 247 254 270 276 267 263 279 289 288 294 296 301 305 308 315 318 317 313 309 303 291 284 271 265 240 251 240 223 220 204 160 211 204
224 295 349 268 279 265 275 261 250 269 254 252 254 233 223 222 238 251 257 259 265 278 287 282 281 292 295 298 303 307 311 314 314 312 310 303 295 282 273 247 254 244 251 227 219 209 219 191 183
1 308 281 277 263 255 254 268 303 248 192 239 229 242 250 227 239 247 255 266 276 289 291 292 288 294 296 298 304 306 311 312 310 308 308 299 285 287 271 256 251 249 252 234 216 212 205 191 170
289 292 245 221 233 284 323 273 226 239 234 196 219 238 233 235 243 249 256 260 264 272 284 292 295 297 299 302 303 306 308 307 310 312 310 298 294 268 263 242 242 245 247 236 221 217 183 172 188
247 223 283 91 153 193 37 276 152 167 190 216 232 230 223 223 240 251 257 261 263 277 284 296 298 299 302 302 304 308 309 309 311 311 301 287 280 257 255 245 221 229 215 225 195 191 180 179 172
201 266 212 153 194 354 194 280 160 200 201 222 239 226 219 218 235 241 250 256 270 276 289 297 302 306 308 308 313 316 321 324 317 297 293 274 260 277 241 232 235 223 205 212 180 182 173 168 163
313 254 298 246 162 208 257 258 268 259 224 222 229 239 233 214 216 220 235 252 267 284 295 302 307 309 313 315 321 323 322 301 305 290 278 320 318 294 227 235 240 203 196 187 179 176 163 158 156
334 307 295 296 128 19 254 269 273 274 285 319 286 271 240 230 203 219 243 255 268 283 297 306 314 314 316 320 321 321 319 315 311 302 299 277 268 280 219 230 237 199 173 196 193 173 185 166 162
271 283 286 295 84 96 291 288 285 97 100 90 294 263 197 178 185 226 236 259 277 290 303 304 310 315 316 318 320 325 324 327 331 360 9 339 247 211 208 221 190 191 176 182 197 193 188 180 182
226 245 346 320 326 240 290 272 173 121 131 150 202 92 147 172 196 212 226 263 278 290 298 303 309 314 315 320 326 323 321 340 347 356 352 290 243 179 197 202 188 186 186 179 180 183 189 176 172
255 28 52 329 17 285 18 284 261 154 179 192 174 175 170 168 176 196 226 255 269 274 294 298 309 318 317 320 325 324 336 351 13 3 332 333 1 215 211 194 208 183 189 171 188 203 190 179 171
143 34 50 14 306 356 217 239 258 129 202 193 179 182 177 184 204 216 240 235 256 283 296 308 317 324 320 326 332 324 333 337 76 349 331 290 257 219 219 211 213 195 196 191 179 174 186 181 175
134 145 123 57 15 342 197 144 281 187 219 142 165 170 178 182 195 205 235 255 273 292 301 310 321 326 324 335 331 316 332 316 166 319 306 333 249 241 197 217 218 218 193 170 180 205 192 180 182
241 109 358 345 7 228 111 72 250 193 106 154 169 177 180 186 196 223 248 263 278 295 312 317 323 324 321 328 328 329 323 345 271 293 290 157 201 213 209 225 211 225 195 190 182 201 185 192 190
188 169 167 212 224 273 7 243 261 79 116 115 158 170 178 185 193 216 242 248 264 278 297 315 318 322 319 321 327 323 343 268 282 298 306 317 214 201 236 252 252 252 204 192 196 178 180 181 186
193 186 166 104 62 38 220 261 180 132 148 182 187 185 191 191 198 237 252 253 265 276 291 312 308 317 311 328 318 301 194 288 258 360 306 305 228 214 246 256 257 242 186 192 189 194 184 175 182
270 323 98 339 163 245 282 266 237 218 208 205 201 204 199 190 203 220 253 250 255 270 290 318 299 300 322 336 345 299 170 215 308 59 328 289 275 240 253 260 248 192 171 185 179 187 188 176 181
171 216 225 142 175 176 229 261 211 154 184 192 194 200 196 200 198 222 259 248 249 256 275 322 310 308 351 344 339 131 132 138 140 104 81 294 285 280 256 203 172 172 173 177 178 199 191 178 185
328 226 188 149 219 247 150 272 140 118 102 149 181 170 188 201 198 215 246 242 244 242 253 288 294 313 346 328 41 108 134 129 122 92 41 2 353 47 117 125 135 143 161 170 175 187 190 189 191
Wind_Speed_850mb
10 10 5 3 3 6 15 3 13 8 4 13 10 7 7 10 8 3 16 8 4 7 16 24 28 31 34 34 30 27 25 23 23 23 23 23 27 29 26 26 28 30 33 31 25 26 29 29 30
6 9 3 10 5 9 4 14 11 16 23 15 6 3 7 4 12 7 7 9 10 16 21 24 29 31 31 31 32 30 28 27 26 25 23 21 25 28 31 31 30 32 35 34 31 31 32 37 36
2 5 9 6 9 11 6 12 13 20 11 3 2 1 3 5 10 13 19 10 10 20 25 25 26 26 26 27 28 29 29 28 28 31 30 23 20 29 31 33 35 35 37 37 36 35 40 42 49
7 6 12 5 17 3 8 13 13 15 5 1 7 10 8 11 13 14 15 12 15 21 22 22 23 23 23 25 27 28 29 30 30 30 32 34 26 25 31 36 37 39 40 39 38 38 44 49 58
7 11 7 10 18 4 9 7 4 7 7 11 9 5 6 15 20 17 14 12 11 17 22 23 22 22 22 24 25 27 28 30 31 33 33 31 32 29 28 34 38 40 44 42 38 43 51 60 66
10 7 7 12 9 9 7 7 3 8 7 11 3 19 4 10 10 13 14 13 17 19 24 23 22 22 25 25 26 28 30 31 32 33 34 35 32 31 31 32 37 37 43 41 35 40 51 83 86
6 5 13 14 15 8 9 11 7 13 13 11 13 7 2 13 12 16 14 16 23 23 22 24 23 25 26 26 27 30 32 33 34 34 34 33 32 31 34 34 39 39 43 45 37 39 41 19 55
9 3 13 10 3 5 11 2 4 9 3 4 8 6 2 14 15 18 18 19 22 24 26 22 25 29 29 31 36 32 33 33 34 36 35 33 31 30 29 30 32 34 38 40 42 43 40 49 28
5 6 11 13 7 6 17 3 13 6 10 4 8 14 9 16 19 18 21 22 21 24 25 25 26 27 30 32 38 40 44 42 40 37 36 36 34 32 32 27 24 24 29 32 38 34 34 50 53
6 6 9 6 10 9 13 6 18 4 14 20 28 26 31 28 23 21 21 20 18 24 32 33 29 33 33 34 39 42 43 44 45 41 37 33 35 35 26 22 29 22 24 29 22 24 10 35 44
7 7 10 17 14 11 11 13 15 9 14 21 21 20 35 32 22 23 24 21 21 25 29 34 37 37 38 40 39 42 44 47 48 45 40 35 34 32 19 18 18 22 23 30 20 25 35 34 34
7 19 5 8 3 7 6 11 12 29 24 17 12 11 18 25 26 24 26 23 21 27 29 30 39 42 41 42 39 43 45 47 47 43 37 33 31 29 22 17 21 18 19 31 39 23 32 25 25
11 10 5 13 13 18 16 22 18 39 36 25 25 22 23 24 25 25 28 27 28 29 28 29 37 45 41 42 40 42 45 47 47 42 33 28 28 25 20 19 18 23 16 26 44 40 41 34 48
8 16 23 12 18 15 10 12 7 9 15 22 38 32 30 29 28 26 27 28 28 28 31 34 36 42 39 37 36 43 47 48 43 36 29 25 27 21 15 17 18 20 27 18 40 42 42 39 65
10 11 15 22 15 6 6 15 23 36 15 12 19 26 32 31 27 31 29 29 28 34 34 35 34 37 32 31 36 42 45 43 37 29 22 22 22 15 13 18 16 16 17 15 31 38 63 56 46
7 6 5 6 8 4 1 15 8 18 19 18 21 23 23 26 30 24 25 27 34 31 29 29 29 31 30 32 37 40 39 34 29 20 18 18 15 9 11 14 17 18 12 14 39 57 75 55 74
11 10 10 9 5 4 12 15 9 14 20 21 23 30 29 25 24 22 21 35 30 24 25 26 26 27 28 32 35 35 32 29 21 18 16 23 6 9 7 12 20 18 17 25 24 33 67 81 78
5 9 5 8 8 11 15 36 33 48 41 37 32 32 29 28 23 25 32 32 21 22 22 24 26 26 27 31 32 30 24 20 20 14 14 7 1 6 10 7 11 19 15 25 27 33 65 81 83
7 12 15 15 6 2 15 28 25 26 8 9 17 23 31 27 22 28 25 20 19 20 22 24 25 26 28 29 29 28 27 24 15 13 7 2 3 7 12 13 7 16 15 22 29 33 39 68 66
7 12 12 4 6 1 16 35 30 8 8 4 4 2 12 23 24 22 17 18 17 20 23 24 26 25 27 26 25 25 22 15 11 6 9 3 5 7 12 15 8 14 17 16 28 47 57 76 60
9 10 6 6 16 12 17 15 7 4 8 10 6 9 17 24 19 15 15 17 15 22 22 25 25 23 24 22 20 20 16 8 10 8 6 5 5 8 14 16 15 13 23 16 22 28 64 77 72
7 6 5 7 11 6 4 11 7 10 11 9 17 13 15 18 18 14 13 17 19 24 23 23 21 20 20 18 16 16 12 3 3 7 6 5 3 7 14 15 17 14 31 16 22 19 64 74 77
3 3 7 5 4 9 6 1 9 9 11 12 14 19 16 15 11 12 16 21 27 22 19 20 19 17 16 15 15 12 7 3 2 8 7 3 2 9 12 14 13 20 23 24 19 16 54 73 82
11 4 4 1 3 3 2 3 9 6 9 13 15 19 19 19 19 19 22 19 21 17 15 17 17 16 14 13 13 12 6 2 2 2 6 2 4 4 10 13 13 11 31 31 22 14 51 81 65
5 3 7 8 4 9 1 0 17 5 10 15 18 26 23 20 17 16 16 14 17 19 15 16 14 11 12 11 12 10 6 1 3 7 7 3 7 8 11 10 11 11 34 36 24 24 40 47 61
12 6 8 10 6 5 5 11 10 7 19 18 23 27 24 21 16 18 16 18 20 18 14 13 12 10 9 12 12 9 5 2 6 6 8 5 4 9 9 8 13 13 30 31 28 29 38 36 55
9 7 4 10 2 5 8 13 3 7 7 11 18 21 23 17 14 14 16 19 21 16 10 9 10 8 9 12 10 6 2 4 6 3 6 4 6 13 19 17 14 12 28 37 26 31 31 33 56
4 3 6 2 6 8 9 8 11 10 15 16 16 27 22 17 16 15 17 18 20 17 10 6 7 8 11 11 5 2 5 5 2 4 3 7 9 13 17 14 13 19 35 29 27 40 33 46 52
6 3 8 1 5 10 3 11 9 9 17 19 18 31 25 24 18 12 14 18 19 15 10 5 5 7 12 8 3 1 7 6 3 4 3 4 9 11 8 9 15 25 37 29 32 28 30 37 33
5 5 13 8 10 1 5 12 3 11 5 15 31 31 28 26 22 11 17 20 18 14 9 4 3 5 8 5 2 7 14 11 6 7 7 10 12 4 11 21 36 41 31 34 32 27 32 33 30
Wind_Direction_850mb
298 346 5 331 245 215 264 254 65 125 158 74 55 14 16 318 357 288 187 181 177 282 304 314 318 316 314 312 309 302 294 291 289 284 293 285 276 266 256 249 251 250 241 238 235 233 228 224 194
309 95 348 255 237 236 255 62 126 55 95 97 113 258 233 125 93 154 191 238 269 281 288 303 307 309 310 311 309 306 299 289 284 279 279 291 273 264 263 255 250 250 251 249 246 236 228 218 200
115 84 266 211 228 252 27 64 61 80 100 194 105 221 322 83 137 152 217 240 282 282 293 307 309 309 311 311 311 310 307 300 290 280 275 270 283 271 258 256 252 250 255 254 249 236 229 220 203
63 249 256 267 265 307 28 63 50 110 116 192 319 277 164 198 156 195 229 262 272 276 293 310 309 315 317 319 319 317 314 311 305 294 283 276 271 272 269 259 252 248 248 252 252 237 235 227 209
5 277 269 229 256 129 93 50 15 202 144 164 181 236 176 208 231 233 267 262 256 268 301 308 312 317 320 320 318 316 313 310 306 301 295 284 272 266 271 269 257 250 248 249 250 240 236 231 214
268 247 275 254 323 120 105 68 198 254 245 135 321 256 255 196 258 231 234 267 270 279 301 309 316 320 321 323 323 322 319 315 309 304 300 295 285 266 263 262 265 254 250 251 258 253 243 235 207
256 292 263 295 308 354 59 74 240 253 232 206 176 309 167 240 221 224 238 253 277 287 302 309 316 321 323 327 333 327 322 315 311 306 300 296 290 278 265 263 262 260 253 249 250 255 262 166 161
308 283 272 257 307 12 80 99 313 339 309 111 136 227 340 208 230 227 263 270 277 292 305 310 321 327 329 331 325 326 324 319 314 305 301 296 291 276 274 267 268 263 264 256 253 251 267 199 186
268 279 269 332 42 74 122 244 148 239 282 259 234 243 269 205 237 258 274 281 291 300 307 309 313 312 316 319 316 325 327 329 324 316 304 295 288 281 273 265 263 260 257 261 249 258 269 236 223
244 262 339 14 16 353 348 174 300 232 252 231 232 244 247 262 254 266 275 284 292 302 309 305 304 305 306 309 314 319 322 325 323 319 307 295 288 287 283 276 262 263 248 250 238 224 217 173 152
233 239 37 31 19 354 315 305 244 236 260 251 232 244 226 244 257 257 265 270 281 286 275 285 294 294 299 303 312 313 316 321 322 318 311 303 288 288 288 266 262 253 246 231 206 190 201 202 180
276 244 5 331 351 288 261 328 279 245 238 294 243 224 211 229 247 254 270 276 267 263 279 289 288 294 296 301 305 308 315 318 317 313 309 303 291 284 271 265 240 251 240 223 220 204 160 211 204
224 295 349 268 279 265 275 261 250 269 254 252 254 233 223 222 238 251 257 259 265 278 287 282 281 292 295 298 303 307 311 314 314 312 310 303 295 282 273 247 254 244 251 227 219 209 219 191 183
1 308 281 277 263 255 254 268 303 248 192 239 229 242 250 227 239 247 255 266 276 289 291 292 288 294 296 298 304 306 311 312 310 308 308 299 285 287 271 256 251 249 252 234 216 212 205 191 170
289 292 245 221 233 284 323 273 226 239 234 196 219 238 233 235 243 249 256 260 264 272 284 292 295 297 299 302 303 306 308 307 310 312 310 298 294 268 263 242 242 245 247 236 221 217 183 172 188
247 223 283 91 153 193 37 276 152 167 190 216 232 230 223 223 240 251 257 261 263 277 284 296 298 299 302 302 304 308 309 309 311 311 301 287 280 257 255 245 221 229 215 225 195 191 180 179 172
201 266 212 153 194 354 194 280 160 200 201 222 239 226 219 218 235 241 250 256 270 276 289 297 302 306 308 308 313 316 321 324 317 297 293 274 260 277 241 232 235 223 205 212 180 182 173 168 163
313 254 298 246 162 208 257 258 268 259 224 222 229 239 233 214 216 220 235 252 267 284 295 302 307 309 313 315 321 323 322 301 305 290 278 320 318 294 227 235 240 203 196 187 179 176 163 158 156
334 307 295 296 128 19 254 269 273 274 285 319 286 271 240 230 203 219 243 255 268 283 297 306 314 314 316 320 321 321 319 315 311 302 299 277 268 280 219 230 237 199 173 196 193 173 185 166 162
271 283 286 295 84 96 291 288 285 97 100 90 294 263 197 178 185 226 236 259 277 290 303 304 310 315 316 318 320 325 324 327 331 360 9 339 247 211 208 221 190 191 176 182 197 193 188 180 182
226 245 346 320 326 240 290 272 173 121 131 150 202 92 147 172 196 212 226 263 278 290 298 303 309 314 315 320 326 323 321 340 347 356 352 290 243 179 197 202 188 186 186 179 180 183 189 176 172
255 28 52 329 17 285 18 284 261 154 179 192 174 175 170 168 176 196 226 255 269 274 294 298 309 318 317 320 325 324 336 351 13 3 332 333 1 215 211 194 208 183 189 171 188 203 190 179 171
143 34 50 14 306 356 217 239 258 129 202 193 179 182 177 184 204 216 240 235 256 283 296 308 317 324 320 326 332 324 333 337 76 349 331 290 257 219 219 211 213 195 196 191 179 174 186 181 175
134 145 123 57 15 342 197 144 281 187 219 142 165 170 178 182 195 205 235 255 273 292 301 310 321 326 324 335 331 316 332 316 166 319 306 333 249 241 197 217 218 218 193 170 180 205 192 180 182
241 109 358 345 7 228 111 72 250 193 106 154 169 177 180 186 196 223 248 263 278 295 312 317 323 324 321 328 328 329 323 345 271 293 290 157 201 213 209 225 211 225 195 190 182 201 185 192 190
188 169 167 212 224 273 7 243 261 79 116 115 158 170 178 185 193 216 242 248 264 278 297 315 318 322 319 321 327 323 343 268 282 298 306 317 214 201 236 252 252 252 204 192 196 178 180 181 186
193 186 166 104 62 38 220 261 180 132 148 182 187 185 191 191 198 237 252 253 265 276 291 312 308 317 311 328 318 301 194 288 258 360 306 305 228 214 246 256 257 242 186 192 189 194 184 175 182
270 323 98 339 163 245 282 266 237 218 208 205 201 204 199 190 203 220 253 250 255 270 290 318 299 300 322 336 345 299 170 215 308 59 328 289 275 240 253 260 248 192 171 185 179 187 188 176 181
171 216 225 142 175 176 229 261 211 154 184 192 194 200 196 200 198 222 259 248 249 256 275 322 310 308 351 344 339 131 132 138 140 104 81 294 285 280 256 203 172 172 173 177 178 199 191 178 185
328 226 188 149 219 247 150 272 140 118 102 149 181 170 188 201 198 215 246 242 244 242 253 288 294 313 346 328 41 108 134 129 122 92 41 2 353 47 117 125 135 143 161 170 175 187 190 189 191